www.pogodaiklimat.ru
ПОГОДА в Оландс Содра Удде
Время
(UTC), дата
01 29.11
02 29.11
03 29.11
04 29.11
05 29.11
06 29.11
07 29.11
08 29.11
09 29.11
10 29.11
11 29.11
12 29.11
13 29.11
14 29.11
15 29.11
16 29.11
17 29.11
18 29.11
19 29.11
20 29.11
21 29.11
22 29.11
23 29.11
00 30.11
01 30.11
02 30.11
03 30.11
04 30.11
05 30.11
06 30.11
07 30.11
08 30.11
09 30.11
10 30.11
11 30.11
12 30.11
13 30.11
14 30.11
15 30.11
16 30.11
17 30.11
18 30.11
19 30.11
20 30.11
21 30.11
22 30.11
23 30.11
00 1.12
01 1.12
02 1.12
03 1.12
04 1.12
05 1.12
06 1.12
07 1.12
08 1.12
09 1.12
10 1.12
11 1.12
12 1.12
13 1.12
14 1.12
15 1.12
16 1.12
17 1.12
18 1.12
19 1.12
20 1.12
21 1.12
22 1.12
23 1.12
00 2.12
01 2.12
02 2.12
03 2.12
04 2.12
05 2.12
06 2.12
07 2.12
08 2.12
09 2.12
10 2.12
11 2.12
12 2.12
13 2.12
14 2.12
15 2.12
16 2.12
17 2.12
18 2.12
19 2.12
20 2.12
21 2.12
22 2.12
23 2.12
00 3.12
01 3.12
02 3.12
03 3.12
04 3.12
05 3.12
06 3.12
07 3.12
08 3.12
09 3.12
10 3.12
11 3.12
12 3.12
13 3.12
14 3.12
15 3.12
16 3.12
17 3.12
18 3.12
19 3.12
20 3.12
21 3.12
22 3.12
23 3.12
00 4.12
01 4.12
02 4.12
03 4.12
04 4.12
05 4.12
06 4.12
07 4.12
08 4.12
11 4.12
12 4.12
13 4.12
14 4.12
15 4.12
16 4.12
17 4.12
18 4.12
19 4.12
20 4.12
21 4.12
22 4.12
23 4.12
00 5.12
01 5.12
02 5.12
03 5.12
04 5.12
05 5.12
06 5.12
07 5.12
08 5.12
09 5.12
10 5.12
11 5.12
12 5.12
13 5.12
14 5.12
15 5.12
16 5.12
17 5.12
18 5.12
19 5.12
20 5.12
21 5.12
22 5.12
00 6.12
Ветер
(напр.,м/с)
Видим. Явления Облачность Т
(С)
Тd
(С)
f
(%)
Тe
(С)
Тes
(С)
Комфортность P
(гПа)
Po
(гПа)
Тmin
(С)
Tmax
(С)
R
(мм)
R24
(мм)
S
(см)
ЮЗ 5
{9}
35 км {дымка} 10/1 180 м
[]
+8.1 +7.7 97 +4 +4 по сезону 983.5 983.2
ЮЗ 5
{8}
3100 м слаб. ливневой дождь {морось} 10/10 90 м
[]
+8.1 +7.8 98 +4 +4 по сезону 983.4 983.0 0.1
ЮЗ 5
{8}
18 км в посл. час дождь {ливн. осадки, морось} 10/3 210 м
[]
+8.0 +7.7 98 +4 +4 по сезону 983.6 983.2
ЮЗ 5
{8}
17 км {ливн. осадки, морось} 10/3 720 м
[]
+7.9 +7.4 97 +4 +4 по сезону 983.8 983.4
З 9 11 км слаб. дождь 10/3 210 м
[]
+7.6 +7.0 96 +2 +2 по сезону 984.0 983.7 0.1
З 11
{13}
22 км слаб. дождь 10/5 900 м
[]
+6.8 +5.3 90 +1 +1 по сезону 984.6 984.2 +6.8 +8.8 0.3
З 10
{14}
50 км в посл. час дождь {метель} 10/8 480 м
[]
+6.3 +4.6 89 0 0 по сезону 985.4 985.0
З 8
{12}
50 км {дождь, метель} 10/4 1140 м
[]
+6.2 +3.1 81 +1 +1 по сезону 986.1 985.7
З 7
{10}
50 км {дождь, метель} 10/10 420 м
[]
+5.9 +3.2 83 +1 +1 по сезону 987.1 986.7
С 7 25 км слаб. ливневой дождь 10/3 180 м
[]
+3.8 +2.6 92 -2 -2 по сезону 988.1 987.7 0.5
С 9
{12}
40 км в посл. час дождь {ливн. осадки} 10/8 240 м
[]
+2.5 +1.1 90 -5 -5 холодно 989.3 988.9 0.3
С 11
{14}
23 км слаб. дождь 10/4 180 м
[]
+1.7 +0.5 92 -6 -6 холодно 990.6 990.2 0.0
С 11
{15}
5000 м слаб. дождь со снегом 10/8 210 м
[]
+1.3 +0.9 97 -7 -7 холодно 992.1 991.7 0.1
С 13
{17}
1400 м слаб. снег {дождь} ?/? +0.4 0.0 97 -9 -9 очень
холодно
993.8 993.4 0.2
С 12
{19}
14 км слаб. снег {дождь} 10/3 150 м
[]
+1.4 +1.0 97 -7 -7 холодно 995.9 995.5
С 15
{20}
50 км в посл. час снег {дождь} 10/1 660 м
[]
+1.4 -1.1 83 -8 -8 очень
холодно
997.5 997.1 0.0
СЗ 15
{21}
50 км {снег, дождь} 10/3
[]
+1.3 -2.2 77 -8 -8 очень
холодно
999.4 999.0
СЗ 15
{19}
50 км {снег, дождь} 1/0
[]
+1.4 -1.5 81 -8 -8 очень
холодно
1001.0 1000.6 0.0 +6.9
СЗ 15
{20}
50 км 1/1 500 м
[]
+1.6 -1.3 81 -7 -7 холодно 1002.2 1001.9
СЗ 14
{19}
50 км ясно +1.6 -1.5 80 -7 -7 холодно 1003.6 1003.2
СЗ 13
{19}
50 км ясно +1.7 -1.2 81 -7 -7 холодно 1004.6 1004.2
СЗ 11
{17}
50 км 1/0
[]
+1.5 -1.4 81 -6 -6 холодно 1005.7 1005.3
СЗ 9
{15}
50 км 1/0
[]
+0.9 -1.6 83 -7 -7 холодно 1006.6 1006.2
СЗ 8
{11}
50 км 1/0
[]
+0.6 -1.6 85 -7 -7 холодно 1007.6 1007.3
СЗ 10
{13}
50 км 1/0
[]
+0.8 -1.7 83 -7 -7 холодно 1008.6 1008.2
СЗ 9
{12}
50 км ясно +1.0 -2.1 80 -6 -6 холодно 1009.4 1009.0
СЗ 10
{14}
50 км ясно +1.3 -2.6 75 -6 -6 холодно 1009.8 1009.5
СЗ 11
{14}
50 км ясно +2.0 -2.3 73 -6 -6 холодно 1010.8 1010.4
СЗ 10
{13}
50 км 3/3
[]
+1.8 -1.8 77 -6 -6 холодно 1011.4 1011.0
СЗ 9
{13}
50 км 6/3
[]
+1.4 -2.9 73 -6 -6 холодно 1012.2 1011.8 +0.5 +2.0
СЗ 8
{11}
50 км 4/3
[]
+1.4 -2.3 76 -5 -5 холодно 1012.8 1012.4
СЗ 9
{11}
50 км ясно +2.0 -2.5 72 -5 -5 холодно 1013.5 1013.1
СЗ 7
{12}
50 км ясно +2.4 -3.3 66 -4 -4 прохладно 1014.1 1013.7
СЗ 6
{9}
45 км ясно +2.6 -2.9 67 -3 -3 прохладно 1014.7 1014.3
СЗ 6
{8}
45 км ясно +3.3 -3.3 62 -2 -2 по сезону 1015.0 1014.6
СЗ 7
{9}
50 км ясно +3.8 -3.8 58 -2 -1 по сезону 1015.1 1014.7
СЗ 6
{9}
50 км ясно +3.5 -3.9 58 -2 -2 по сезону 1015.6 1015.2
СЗ 7
{9}
50 км ясно +3.2 -1.2 73 -3 -3 прохладно 1016.0 1015.6
СЗ 6
{9}
50 км ясно +2.9 -0.9 76 -3 -3 прохладно 1016.4 1016.1
СЗ 7
{10}
50 км ясно +2.5 -1.5 75 -4 -4 прохладно 1016.9 1016.5
СЗ 7
{9}
50 км ясно +2.5 -1.3 76 -4 -4 прохладно 1017.3 1016.9
СЗ 6
{9}
50 км ясно +2.4 -1.1 78 -3 -3 прохладно 1017.8 1017.4 +1.1 +3.9
СЗ 6
{8}
50 км ясно +2.5 -1.8 73 -3 -3 прохладно 1018.2 1017.8
С 5
{9}
50 км ясно +1.6 -2.4 75 -4 -4 прохладно 1018.6 1018.2
С 4
{8}
50 км ясно +1.0 -1.8 82 -4 -4 прохладно 1018.7 1018.3
С 3
{6}
50 км ясно -0.3 -2.4 86 -5 -5 холодно 1018.9 1018.5
С 1
{3}
50 км ясно -0.5 -2.3 88 -3 -3 прохладно 1019.4 1019.1
С 3
{5}
50 км 1/0
[]
+0.5 -1.6 86 -4 -4 прохладно 1019.6 1019.3
С 2
{5}
50 км ясно -0.3 -2.3 86 -4 -4 прохладно 1019.6 1019.2
СВ 2
{5}
50 км ясно -2.4 -3.8 90 -6 -6 холодно 1019.7 1019.3
СВ 1
{2}
50 км ясно -2.1 -2.9 94 -4 -4 прохладно 1019.4 1019.1
штиль 0
{1}
50 км ясно -0.5 -2.3 88 -2 -2 по сезону 1019.4 1019.0
штиль 0
{1}
50 км ясно -2.7 -4.5 87 -4 -4 прохладно 1019.1 1018.8
штиль 0
{1}
50 км ясно -2.2 -2.8 96 -4 -4 прохладно 1018.7 1018.3 -2.9 +2.6
ЮЗ 2
{3}
50 км ясно +1.7 -3.4 69 -1 -1 по сезону 1018.4 1018.0
ЮЗ 3
{4}
50 км 10/10 1500 м
[]
+2.8 -1.5 73 -1 -1 по сезону 1018.5 1018.1
З 3
{6}
50 км 10/10 1500 м
[]
+3.7 -0.1 76 0 0 по сезону 1018.3 1017.9
З 4
{6}
50 км 10/10 1350 м
[]
+4.2 +0.5 77 0 0 по сезону 1017.9 1017.6
З 5
{7}
50 км 10/3 840 м
[]
+4.2 +0.4 76 -1 -0 по сезону 1017.3 1016.9
З 5
{8}
50 км 10/10 1470 м
[]
+4.0 -0.7 71 -1 -1 по сезону 1016.9 1016.5
З 4
{8}
50 км 10/10 1410 м
[]
+4.0 -1.5 67 -0 -0 по сезону 1016.3 1015.9
З 5
{8}
50 км 10/10 1350 м
[]
+4.0 -0.5 72 -1 -1 по сезону 1015.9 1015.6
З 6
{9}
50 км 10/10 1380 м
[]
+3.5 -0.2 77 -2 -2 по сезону 1015.8 1015.4
З 7
{10}
50 км 10/10 1320 м
[]
+3.1 -0.3 78 -3 -3 прохладно 1015.8 1015.4
З 6
{9}
50 км 6/6 1000 м
[]
+3.0 +0.2 82 -3 -3 прохладно 1015.8 1015.5
З 6
{8}
50 км 3/0
[]
+3.3 +0.1 80 -2 -2 по сезону 1015.4 1015.0 -2.6 +4.3
З 6
{10}
50 км ясно +3.7 -0.6 73 -2 -2 по сезону 1015.0 1014.6
З 7
{10}
50 км ясно +4.0 +0.8 80 -2 -2 по сезону 1014.6 1014.2
З 7
{10}
45 км 5/3 1500 м
[]
+4.0 +1.6 84 -2 -2 по сезону 1013.9 1013.6
З 9
{11}
50 км 8/3 1050 м
[]
+4.4 +2.1 85 -2 -2 по сезону 1013.5 1013.1
З 10
{12}
50 км 10/8 870 м
[]
+4.5 +2.0 84 -2 -2 по сезону 1013.0 1012.6
З 9
{12}
50 км в посл. час дождь {ливн. осадки, метель} 10/1 600 м
[]
+5.0 +3.0 87 -1 -1 по сезону 1012.4 1012.0 0.0
З 8
{12}
45 км 10/8 400 м
[]
+4.7 +2.8 87 -1 -1 по сезону 1012.3 1011.9
З 9
{11}
40 км 10/3 270 м
[]
+4.0 +2.7 91 -3 -3 прохладно 1011.9 1011.6
СЗ 7
{11}
30 км 10/3 240 м
[]
+3.5 +2.4 92 -3 -3 прохладно 1011.6 1011.2
З 7
{9}
40 км 10/6 240 м
[]
+3.3 +2.2 92 -3 -3 прохладно 1011.0 1010.6
З 8
{10}
50 км 10/5 270 м
[]
+3.6 +2.1 90 -3 -3 прохладно 1010.5 1010.1
СЗ 8
{10}
50 км 10/9 240 м
[]
+3.1 +1.8 91 -4 -4 прохладно 1010.7 1010.4 +3.1 +5.1
С 7
{10}
50 км 10/10 420 м
[]
+2.5 +0.2 85 -4 -4 прохладно 1011.1 1010.7
С 7
{10}
50 км 9/8 450 м
[]
+2.1 -0.2 85 -4 -4 прохладно 1011.5 1011.1
С 6
{10}
50 км 9/4 480 м
[]
+2.1 -0.8 81 -4 -4 прохладно 1012.1 1011.7
С 6
{10}
50 км ясно +2.3 -0.9 79 -4 -3 прохладно 1012.5 1012.1
С 6
{10}
50 км ясно +2.3 -1.3 77 -4 -3 прохладно 1012.5 1012.1
С 6
{9}
50 км ясно +2.3 -1.2 78 -4 -3 прохладно 1012.7 1012.3
С 6
{9}
50 км ясно +2.2 -2.0 74 -4 -3 прохладно 1012.9 1012.6
С 9
{11}
50 км ясно +2.3 -4.3 62 -4 -4 прохладно 1013.3 1012.9
С 8
{11}
50 км 1/0
[]
+1.9 -4.3 63 -5 -5 холодно 1014.0 1013.7
С 8
{12}
50 км ясно +1.6 -3.7 68 -5 -5 холодно 1014.8 1014.4
С 8
{12}
50 км ясно +1.5 -2.9 73 -5 -5 холодно 1015.4 1015.0
С 9
{13}
50 км ясно +1.6 -3.0 71 -5 -5 холодно 1016.3 1015.9 +1.5
СЗ 9
{12}
50 км ясно +1.2 -2.8 75 -6 -6 холодно 1016.8 1016.4
С 8
{12}
50 км ясно +1.0 -2.3 79 -6 -6 холодно 1017.4 1017.0
С 9
{12}
50 км ясно +0.6 -2.5 80 -7 -7 холодно 1017.9 1017.5
С 9
{13}
50 км ясно +0.4 -2.7 80 -7 -7 холодно 1018.7 1018.4
С 8
{12}
50 км ясно +0.3 -2.9 79 -7 -7 холодно 1019.3 1018.9
С 8
{13}
50 км ясно +0.4 -2.5 81 -7 -7 холодно 1019.6 1019.3
С 7
{13}
50 км ясно +0.1 -2.7 81 -7 -7 холодно 1020.1 1019.7
С 6
{10}
50 км ясно +0.2 -2.6 81 -6 -6 холодно 1020.6 1020.2
СЗ 7
{10}
50 км ясно -0.1 -3.2 80 -7 -7 холодно 1020.5 1020.1
СЗ 6
{9}
50 км ясно -0.3 -2.9 83 -7 -7 холодно 1021.3 1020.9
СЗ 5
{8}
50 км ясно -0.1 -2.5 84 -6 -6 холодно 1021.3 1020.9
СЗ 6
{7}
50 км ясно +0.7 -2.7 78 -6 -6 холодно 1021.0 1020.6 -0.6 +1.6
СЗ 8
{9}
50 км ясно +0.6 -2.6 79 -7 -7 холодно 1021.1 1020.7
З 4
{9}
50 км ясно +1.5 -3.5 69 -3 -3 прохладно 1021.2 1020.8
З 4
{7}
50 км ясно +1.9 -3.2 69 -3 -3 прохладно 1021.4 1021.0
З 7
{8}
50 км ясно +3.0 -2.9 65 -3 -3 прохладно 1021.4 1021.0
З 9
{11}
50 км ясно +3.8 -0.5 73 -3 -2 прохладно 1020.5 1020.1
З 9
{12}
50 км 1/1
[]
+4.6 -1.5 65 -1 -1 по сезону 1019.4 1019.0
З 11
{14}
50 км 9/3
[]
+4.6 -1.7 64 -2 -2 по сезону 1018.4 1018.0
ЮЗ 9
{15}
50 км 10/10 1320 м
[]
+4.9 +0.8 75 -1 -1 по сезону 1017.5 1017.1
ЮЗ 9
{14}
10 км слаб. дождь 10/3 180 м
[]
+4.8 +3.1 89 -2 -2 по сезону 1016.8 1016.4 0.2
ЮЗ 10
{15}
14 км слаб. дождь 10/6 240 м
[]
+5.4 +4.2 92 -1 -1 по сезону 1016.0 1015.6 0.7
ЮЗ 9
{14}
7000 м слаб. дождь {морось} 10/10 180 м
[]
+6.0 +5.3 95 0 0 по сезону 1015.2 1014.8 0.8
ЮЗ 9
{13}
6000 м слаб. дождь {морось} 10/9 180 м
[]
+6.3 +5.8 97 0 0 по сезону 1014.1 1013.8 +0.5 +6.4 1
ЮЗ 11
{14}
3300 м слаб. дождь 10/10 120 м
[]
+6.6 +6.2 97 0 0 по сезону 1013.1 1012.7 1
З 10
{15}
21 км в посл. час дождь {метель} 10/10 210 м
[]
+6.8 +6.2 96 +1 +1 по сезону 1012.5 1012.2 0.1
З 9
{14}
40 км {дождь, метель} 10/5 240 м
[]
+6.9 +6.2 95 +1 +1 по сезону 1012.3 1012.0
З 9
{12}
35 км {дождь, метель} 10/5 360 м
[]
+6.8 +6.0 95 +1 +1 по сезону 1012.1 1011.8
З 8
{12}
40 км {дождь, метель} 10/10 500 м
[]
+6.9 +6.0 94 +2 +2 по сезону 1012.3 1011.9
З 7
{11}
40 км {дождь, метель} 10/10 360 м
[]
+6.8 +5.9 94 +2 +2 по сезону 1012.5 1012.1
З 9
{12}
40 км 10/10 330 м
[]
+6.8 +5.6 92 +1 +1 по сезону 1012.4 1012.0
З 10
{14}
35 км 10/10 300 м
[]
+6.8 +5.6 92 +1 +1 по сезону 1012.5 1012.1
З 10
{14}
35 км 10/10 270 м
[]
+6.7 +5.5 92 +1 +1 по сезону 1012.4 1012.0
З 9
{11}
40 км 10/10 270 м
[]
+6.7 +5.5 92 +1 +1 по сезону 1012.9 1012.5
З 7
{10}
35 км 10/10 270 м
[]
+6.6 +5.5 93 +2 +2 по сезону 1013.2 1012.8
З 6
{10}
35 км 10/10 270 м
[]
+6.7 +5.5 92 +2 +2 по сезону 1013.5 1013.2 +6.3 +6.9
З 6
{10}
21 км 10/10 270 м
[]
+6.8 +5.6 92 +2 +2 по сезону 1014.3 1013.9
З 8
{11}
28 км 10/10 360 м
[]
+6.9 +5.2 89 +2 +2 по сезону 1014.7 1014.3
З 8
{11}
35 км 10/10 450 м
[]
+7.1 +4.8 85 +2 +2 по сезону 1015.2 1014.8
З 7
{11}
35 км 10/10 450 м
[]
+7.1 +4.7 85 +2 +2 по сезону 1014.9 1014.5
З 7
{11}
35 км 10/10 500 м
[]
+7.1 +4.7 85 +2 +2 по сезону 1014.9 1014.6
З 9
{12}
25 км 10/10 500 м
[]
+7.2 +4.8 85 +2 +2 по сезону 1014.9 1014.6
З 9
{13}
26 км 10/10 480 м
[]
+7.1 +4.8 85 +2 +2 по сезону 1015.3 1014.9
З 10
{13}
26 км 10/10 480 м
[]
+7.0 +4.3 83 +1 +1 по сезону 1015.1 1014.8
З 10
{14}
29 км 10/10 450 м
[]
+6.9 +4.4 84 +1 +1 по сезону 1015.2 1014.8
З 10
{14}
25 км 10/10 420 м
[]
+6.7 +4.2 84 +1 +1 по сезону 1015.2 1014.8 +6.7 +7.3
З 9
{14}
23 км 10/10 450 м
[]
+6.5 +4.0 84 +1 +1 по сезону 1015.2 1014.8
З 9
{14}
30 км 10/10 420 м
[]
+6.5 +4.0 84 +1 +1 по сезону 1015.4 1015.0
З 8
{13}
30 км 10/10 450 м
[]
+6.6 +4.1 84 +1 +1 по сезону 1015.4 1015.0
З 10
{12}
26 км 10/10 480 м
[]
+6.6 +3.9 83 +1 +1 по сезону 1015.2 1014.9
З 9
{13}
23 км 10/10 480 м
[]
+6.5 +3.8 83 +1 +1 по сезону 1015.1 1014.8
З 10
{13}
21 км 9/5 450 м
[]
+6.2 +3.6 83 0 0 по сезону 1015.0 1014.6
З 10
{14}
21 км 9/9 480 м
[]
+6.7 +4.0 83 +1 +1 по сезону 1014.8 1014.4
З 11
{15}
18 км 10/10 480 м
[]
+6.5 +3.7 82 0 0 по сезону 1014.4 1014.0
З 10
{14}
18 км 10/10 500 м
[]
+6.4 +3.8 83 +1 +1 по сезону 1014.4 1014.0
З 10
{16}
16 км 10/10 480 м
[]
+6.4 +3.5 82 +1 +1 по сезону 1014.5 1014.1
ЮЗ 8
{15}
17 км 10/10 540 м
[]
+6.4 +3.8 83 +1 +1 по сезону 1014.1 1013.7
ЮЗ 8
{13}
19 км 10/10 700 м
[]
+6.5 +4.2 85 +1 +1 по сезону 1013.6 1013.3 +6.1 +6.7
ЮЗ 10
{14}
24 км 10/8 700 м
[]
+6.7 +4.0 83 +1 +1 по сезону 1013.5 1013.1
З 9
{14}
27 км 10/8 630 м
[]
+6.7 +4.0 83 +1 +1 по сезону 1013.3 1012.9
ЮЗ 10
{14}
20 км 10/10 600 м
[]
+6.8 +4.1 83 +1 +1 по сезону 1013.1 1012.7
ЮЗ 11
{15}
24 км 10/8 570 м
[]
+6.8 +4.0 82 +1 +1 по сезону 1012.3 1012.0
ЮЗ 10
{15}
22 км 10/8 600 м
[]
+6.7 +4.0 83 +1 +1 по сезону 1011.9 1011.5
ЮЗ 10
{15}
22 км ясно +7.1 +4.1 81 +2 +2 по сезону 1011.1 1010.7
ЮЗ 10
{15}
14 км 9/8 450 м
[]
+7.0 +4.8 86 +1 +1 по сезону 1010.7 1010.3
З 10
{14}
17 км 8/3 480 м
[]
+7.0 +4.8 86 +1 +1 по сезону 1010.4 1010.0
ЮЗ 11
{15}
18 км 10/9 570 м
[]
+6.9 +4.6 85 +1 +1 по сезону 1009.6 1009.2
ЮЗ 10
{15}
19 км 10/10 500 м
[]
+6.9 +4.6 85 +1 +1 по сезону 1009.3 1008.9
ЮЗ 9
{15}
16 км 10/10 500 м
[]
+6.9 +4.8 86 +1 +1 по сезону 1009.0 1008.6
ЮЗ 12
{16}
14 км 10/8 400 м
[]
+6.7 +4.8 88 0 0 по сезону 1008.2 1007.8 +6.5 +7.2
ЮЗ 12
{16}
14 км 10/10 450 м
[]
+6.8 +4.7 86 +1 +1 по сезону 1008.1 1007.7
З 10
{18}
15 км 10/6 450 м
[]
+7.0 +4.8 86 +1 +1 по сезону 1007.7 1007.4
ЮЗ 11
{15}
17 км 10/4 480 м
[]
+7.0 +4.8 86 +1 +1 по сезону 1006.5 1006.2
ЮЗ 12
{17}
14 км 10/3 450 м
[]
+6.6 +4.5 86 0 0 по сезону 1005.3 1004.9
ЮЗ 10
{17}
10 км 10/9 360 м
[]
+6.6 +4.8 88 +1 +1 по сезону 1003.1 1002.7
Местоположение метеостанции Оландс Содра Удде (Швеция): широта 56.20 долгота 16.40 высота над уровнем моря 3 м.
В архиве по умолчанию представлена погода в Оландс Содра Удде за последнюю неделю. Архивные данные за месяц целиком и за предыдущие месяцы, начиная с января 2011 года, Вы можете получить, выбрав интересующий диапазон дат из раскрывающегося списка и нажав кнопку "Найти!".
*Определитесь, кто Вы:
Внимание! Время в таблицах - всемирное. Для получения местного времени необходимо прибавить поправку, которая равна 1 ч.
Смотрите также архив погоды в соседних городах и на ближайших метеорологических станциях:
Партнеры нашего сайта:      
Пояснения к столбцам:
  • Ветер - указаны скорость ветра в м/с - средняя за 10 мин, порывы в срок и между сроками (в фигурных скобках) и направление, откуда дует ветер: С - северный,
  • СВ - северо-восточный, В - восточный, ЮВ - юго-восточный, Ю - южный, ЮЗ - юго-западный, З - западный, СЗ - северо-западный.
  • Видимость - горизонтальная дальность видимости в метрах или километрах. При видимости от 1 до 10 км при отсутствии осадков обычно наблюдается дымка, при ухудшении видимости до 1 км и менее - туман. В сухую погоду видимость может ухудшаться дымом, пылью или мглою.
  • Явления - указаны атмосферные явления, наблюдавшиеся в срок или в последний час перед сроком; фигурными скобками обозначены явления, наблюдавшиеся между сроками (за 1-3 часа до срока); квадратными скобками обозначены град или гололедные отложения с указанием их диаметра в мм.
  • Облачность - указаны через наклонную черту общая и нижняя облачность в баллах и высота нижней границы облаков в метрах; квадратными скобками обозначены формы облаков: Ci - перистые, Cs - перисто-слоистые, Cc - перисто-кучевые, Ac - высококучевые, As - высокослоистые, Sc - слоисто-кучевые, Ns - слоисто-дождевые, Cu - кучевые, Cb - кучево-дождевые. Подробнее классификацию облаков см. в Атласе облаков (PDF).
  • T - Температура воздуха - температура, измеренная на высоте 2 м над землей.
  • Td - Температура точки росы - температура, при понижении до которой содержащийся в воздухе водяной пар достигнет насыщения.
  • f - Относительная влажность воздуха - влажноcть воздуха, измеренная на высоте 2 м над землей.
  • Te - Эффективная температура - температура, которую ощущает одетый по сезону человек в тени. Характеристика душности погоды. При расчете учитывается влияние влажности воздуха и скорости ветра на теплоощущения человека.
  • Tes - Эффективная температура на солнце - температура, которую ощущает человек, с поправкой на солнечный нагрев. Характеристика знойности погоды. Зависит от высоты солнца над горизонтом, облачности и скорости ветра. Ночью, в пасмурную погоду, а также при ветре 12 м/с и более поправка равна нулю.
  • P - Атмосферное давление - приведенное к уровню моря атмосферное давление.
  • Po - Атмосферное давление - измеренное на уровне метеостанции атмосферное давление.
  • Tmin - Минимальная температура - минимум температуры воздуха на высоте 2 м над землей.
  • Tmax - Максимальная температура - максимум температуры воздуха на высоте 2 м над землей.
  • R - Количество осадков - Количество выпавших осадков за период времени, мм. При наведении курсора мыши на число - период времени, за который выпало указанное количество осадков.
  • R24 - Количество осадков - Количество выпавших осадков за 24 часа, мм.
  • S - Снежный покров - Высота снежного покрова, см. При наведении курсора мыши на число - состояние снежного покрова и степень покрытия местности в баллах.